Torna al catalogo

STARLINK-33565

AttivoComunicazioniVLEO
NORAD 62288·PAYLOAD·🇺🇸 United States

Lanciato Dec 8, 2024 da Cape Canaveral Space Force Station

Loading…

Prossimi Passaggi (prossime 24 ore)

TLE

AggiornatoSource: CelesTrak SupGP

Epoca: Sep 14, 2026, 15:02 UTC

1 62288C 24237X   26257.62687500 -.00023883  00000+0 -86534-3 0  2571
2 62288  43.0009 218.0393 0001461 267.3698 250.4327 15.27579215    11

Traccia STARLINK-33565 in tempo reale con AllMySat

Download on the App Store